Time,TemperatureF,DewpointF,PressureIn,WindDirection,WindDirectionDegrees,WindSpeedMPH,WindSpeedGustMPH,Humidity,HourlyPrecipIn,Conditions,Clouds,dailyrainin,SoftwareType,DateUTC
2013-04-06 00:02:00,31.0,28.0,-100.00,ESE,105,7.0,12.0,91,0.00,,,0.00,,2013-04-06 00:02:00,
2013-04-06 00:12:00,31.0,28.0,-100.00,East,80,7.0,12.0,91,0.00,,,0.00,,2013-04-06 00:12:00,
2013-04-06 00:22:00,31.0,28.0,-100.00,East,80,10.0,14.0,92,0.00,,,0.00,,2013-04-06 00:22:00,
2013-04-06 00:32:00,31.0,28.0,-100.00,East,80,10.0,14.0,92,0.00,,,0.00,,2013-04-06 00:32:00,
2013-04-06 00:42:00,31.0,28.0,-100.00,East,80,10.0,14.0,92,0.00,,,0.00,,2013-04-06 00:42:00,
2013-04-06 00:52:00,31.0,28.0,-100.00,East,80,10.0,14.0,92,0.00,,,0.00,,2013-04-06 00:52:00,
2013-04-06 01:02:00,31.0,30.0,-100.00,East,80,11.0,15.0,94,0.00,,,0.00,,2013-04-06 01:02:00,
2013-04-06 01:13:00,31.0,28.0,-100.00,East,80,12.0,14.0,94,0.00,,,0.00,,2013-04-06 01:13:00,
2013-04-06 01:22:00,31.0,30.0,-100.00,East,80,14.0,17.0,94,0.00,,,0.00,,2013-04-06 01:22:00,
2013-04-06 01:32:00,31.0,30.0,-100.00,East,80,14.0,17.0,94,0.00,,,0.00,,2013-04-06 01:32:00,
2013-04-06 01:43:00,31.0,30.0,-100.00,East,85,14.0,16.0,94,0.00,,,0.00,,2013-04-06 01:43:00,
2013-04-06 01:52:00,31.0,28.0,-100.00,East,90,14.0,17.0,92,0.00,,,0.00,,2013-04-06 01:52:00,
2013-04-06 02:02:00,31.0,28.0,-100.00,East,90,13.0,18.0,91,0.00,,,0.00,,2013-04-06 02:02:00,
2013-04-06 02:12:00,31.0,28.0,-100.00,East,85,16.0,20.0,89,0.00,,,0.00,,2013-04-06 02:12:00,
2013-04-06 02:22:00,31.0,28.0,-100.00,East,85,16.0,20.0,89,0.00,,,0.00,,2013-04-06 02:22:00,
2013-04-06 02:32:00,31.0,28.0,-100.00,East,85,16.0,20.0,89,0.00,,,0.00,,2013-04-06 02:32:00,
2013-04-06 02:42:00,31.0,28.0,-100.00,East,85,16.0,20.0,89,0.00,,,0.00,,2013-04-06 02:42:00,
2013-04-06 02:52:00,31.0,28.0,-100.00,East,85,16.0,20.0,89,0.00,,,0.00,,2013-04-06 02:52:00,
2013-04-06 03:12:00,31.0,28.0,-100.00,East,80,14.0,17.0,88,0.00,,,0.00,,2013-04-06 03:12:00,
2013-04-06 03:22:00,31.0,28.0,-100.00,East,85,13.0,17.0,88,0.00,,,0.00,,2013-04-06 03:22:00,
2013-04-06 03:34:00,31.0,28.0,-100.00,East,85,13.0,17.0,88,0.00,,,0.00,,2013-04-06 03:34:00,
2013-04-06 03:43:00,31.0,28.0,-100.00,East,85,13.0,17.0,88,0.00,,,0.00,,2013-04-06 03:43:00,
2013-04-06 03:53:00,31.0,28.0,-100.00,East,85,13.0,17.0,88,0.00,,,0.00,,2013-04-06 03:53:00,
2013-04-06 04:03:00,31.0,28.0,-100.00,East,85,13.0,17.0,88,0.00,,,0.00,,2013-04-06 04:03:00,
2013-04-06 04:43:00,30.0,28.0,-100.00,East,80,10.0,12.0,90,0.00,,,0.00,,2013-04-06 04:43:00,
2013-04-06 04:53:00,30.0,28.0,-100.00,East,80,10.0,12.0,90,0.00,,,0.00,,2013-04-06 04:53:00,
2013-04-06 05:02:00,30.0,28.0,-100.00,ENE,60,7.0,10.0,90,0.00,,,0.00,,2013-04-06 05:02:00,
2013-04-06 05:13:00,30.0,28.0,-100.00,ENE,60,7.0,10.0,90,0.00,,,0.00,,2013-04-06 05:13:00,
2013-04-06 05:22:00,30.0,28.0,-100.00,ENE,60,7.0,10.0,90,0.00,,,0.00,,2013-04-06 05:22:00,
2013-04-06 05:32:00,30.0,28.0,-100.00,ENE,70,8.0,9.0,92,0.00,,,0.00,,2013-04-06 05:32:00,
2013-04-06 05:42:00,30.0,28.0,-100.00,ENE,70,8.0,9.0,92,0.00,,,0.00,,2013-04-06 05:42:00,
2013-04-06 05:52:00,30.0,28.0,-100.00,ENE,75,8.0,9.0,92,0.00,,,0.00,,2013-04-06 05:52:00,
2013-04-06 06:02:00,30.0,28.0,-100.00,ENE,75,8.0,9.0,92,0.00,,,0.00,,2013-04-06 06:02:00,
2013-04-06 06:12:00,31.0,28.0,-100.00,ENE,75,8.0,9.0,91,0.00,,,0.00,,2013-04-06 06:12:00,
2013-04-06 06:22:00,31.0,28.0,-100.00,ENE,75,7.0,9.0,89,0.00,,,0.00,,2013-04-06 06:22:00,
2013-04-06 06:32:00,31.0,28.0,-100.00,ENE,75,7.0,9.0,89,0.00,,,0.00,,2013-04-06 06:32:00,
2013-04-06 06:42:00,31.0,28.0,-100.00,ENE,75,7.0,9.0,89,0.00,,,0.00,,2013-04-06 06:42:00,
2013-04-06 06:52:00,31.0,28.0,-100.00,ENE,75,6.0,9.0,88,0.00,,,0.00,,2013-04-06 06:52:00,
2013-04-06 07:03:00,31.0,28.0,-100.00,ENE,75,6.0,8.0,88,0.00,,,0.00,,2013-04-06 07:03:00,
2013-04-06 07:12:00,31.0,28.0,-100.00,ENE,75,6.0,8.0,88,0.00,,,0.00,,2013-04-06 07:12:00,
2013-04-06 07:22:00,31.0,28.0,-100.00,ENE,75,6.0,8.0,88,0.00,,,0.00,,2013-04-06 07:22:00,
2013-04-06 07:33:00,31.0,28.0,-100.00,ENE,75,6.0,8.0,88,0.00,,,0.00,,2013-04-06 07:33:00,
2013-04-06 07:53:00,28.0,27.0,-100.00,ENE,70,5.0,6.0,92,0.00,,,0.00,,2013-04-06 07:53:00,
2013-04-06 08:02:00,28.0,27.0,-100.00,ENE,70,5.0,6.0,92,0.00,,,0.00,,2013-04-06 08:02:00,
2013-04-06 08:13:00,28.0,27.0,-100.00,ENE,70,5.0,6.0,92,0.00,,,0.00,,2013-04-06 08:13:00,
2013-04-06 08:22:00,28.0,27.0,-100.00,NE,50,6.0,6.0,93,0.00,,,0.00,,2013-04-06 08:22:00,
2013-04-06 08:32:00,28.0,27.0,-100.00,NE,50,6.0,6.0,93,0.00,,,0.00,,2013-04-06 08:32:00,
2013-04-06 08:42:00,28.0,27.0,-100.00,NE,50,6.0,6.0,93,0.00,,,0.00,,2013-04-06 08:42:00,
2013-04-06 08:52:00,28.0,27.0,-100.00,NE,50,6.0,6.0,93,0.00,,,0.00,,2013-04-06 08:52:00,
2013-04-06 09:53:00,29.0,27.0,-100.00,NNE,30,4.0,7.0,94,0.00,,,0.00,,2013-04-06 09:53:00,
2013-04-06 10:03:00,29.0,28.0,-100.00,NE,40,6.0,6.0,94,0.00,,,0.00,,2013-04-06 10:03:00,
2013-04-06 10:13:00,29.0,28.0,-100.00,ENE,65,8.0,9.0,93,0.00,,,0.00,,2013-04-06 10:13:00,
2013-04-06 10:22:00,29.0,28.0,-100.00,ENE,65,8.0,9.0,93,0.00,,,0.00,,2013-04-06 10:22:00,
2013-04-06 10:33:00,29.0,28.0,-100.00,ENE,65,8.0,9.0,93,0.00,,,0.00,,2013-04-06 10:33:00,
2013-04-06 10:42:00,31.0,28.0,-100.00,ENE,70,9.0,12.0,92,0.00,,,0.00,,2013-04-06 10:42:00,
2013-04-06 10:52:00,31.0,28.0,-100.00,ENE,70,9.0,12.0,92,0.00,,,0.00,,2013-04-06 10:52:00,
2013-04-06 11:02:00,31.0,28.0,-100.00,ENE,70,9.0,12.0,92,0.00,,,0.00,,2013-04-06 11:02:00,
2013-04-06 11:12:00,31.0,28.0,-100.00,ENE,75,9.0,12.0,91,0.00,,,0.00,,2013-04-06 11:12:00,
2013-04-06 11:22:00,31.0,28.0,-100.00,ENE,65,10.0,12.0,91,0.00,,,0.00,,2013-04-06 11:22:00,
2013-04-06 11:33:00,31.0,28.0,-100.00,ENE,65,10.0,12.0,91,0.00,,,0.00,,2013-04-06 11:33:00,
2013-04-06 11:43:00,32.0,28.0,-100.00,ENE,75,9.0,12.0,90,0.00,,,0.00,,2013-04-06 11:43:00,
2013-04-06 11:52:00,31.0,28.0,-100.00,East,80,8.0,12.0,90,0.00,,,0.00,,2013-04-06 11:52:00,
2013-04-06 12:02:00,31.0,28.0,-100.00,East,80,8.0,12.0,90,0.00,,,0.00,,2013-04-06 12:02:00,
2013-04-06 12:12:00,31.0,28.0,-100.00,East,80,8.0,12.0,90,0.00,,,0.00,,2013-04-06 12:12:00,
2013-04-06 12:22:00,31.0,28.0,-100.00,ENE,75,7.0,10.0,92,0.00,,,0.00,,2013-04-06 12:22:00,
2013-04-06 12:32:00,31.0,30.0,-100.00,ENE,75,7.0,9.0,92,0.00,,,0.00,,2013-04-06 12:32:00,
2013-04-06 12:43:00,31.0,30.0,-100.00,ENE,70,8.0,10.0,92,0.00,,,0.00,,2013-04-06 12:43:00,
2013-04-06 12:52:00,32.0,30.0,-100.00,ENE,70,7.0,11.0,92,0.00,,,0.00,,2013-04-06 12:52:00,
2013-04-06 13:02:00,32.0,30.0,-100.00,ENE,65,7.0,9.0,92,0.00,,,0.00,,2013-04-06 13:02:00,
2013-04-06 13:12:00,32.0,30.0,-100.00,ENE,70,9.0,10.0,92,0.00,,,0.00,,2013-04-06 13:12:00,
2013-04-06 13:23:00,32.0,30.0,-100.00,ENE,65,9.0,10.0,92,0.00,,,0.00,,2013-04-06 13:23:00,
2013-04-06 13:32:00,32.0,30.0,-100.00,ENE,65,7.0,10.0,92,0.00,,,0.00,,2013-04-06 13:32:00,
2013-04-06 13:42:00,32.0,30.0,-100.00,ENE,65,8.0,9.0,92,0.00,,,0.00,,2013-04-06 13:42:00,
2013-04-06 13:52:00,32.0,30.0,-100.00,ENE,65,8.0,9.0,92,0.00,,,0.00,,2013-04-06 13:52:00,
2013-04-06 14:04:00,32.0,30.0,-100.00,ENE,65,8.0,9.0,92,0.00,,,0.00,,2013-04-06 14:04:00,
2013-04-06 14:12:00,32.0,30.0,-100.00,ENE,65,8.0,9.0,92,0.00,,,0.00,,2013-04-06 14:12:00,
2013-04-06 14:22:00,33.0,30.0,-100.00,NE,55,7.0,8.0,92,0.00,,,0.00,,2013-04-06 14:22:00,
2013-04-06 14:33:00,33.0,32.0,-100.00,NE,50,5.0,7.0,92,0.00,,,0.00,,2013-04-06 14:33:00,
2013-04-06 14:42:00,33.0,32.0,-100.00,NE,50,5.0,7.0,92,0.00,,,0.00,,2013-04-06 14:42:00,
2013-04-06 14:52:00,33.0,32.0,-100.00,NE,50,5.0,7.0,92,0.00,,,0.00,,2013-04-06 14:52:00,
2013-04-06 15:02:00,33.0,32.0,-100.00,NE,50,5.0,7.0,92,0.00,,,0.00,,2013-04-06 15:02:00,
2013-04-06 15:33:00,36.0,32.0,-100.00,NE,55,6.0,7.0,86,0.00,,,0.00,,2013-04-06 15:33:00,
2013-04-06 15:43:00,36.0,32.0,-100.00,NE,50,6.0,9.0,86,0.00,,,0.00,,2013-04-06 15:43:00,
2013-04-06 15:53:00,37.0,32.0,-100.00,NE,50,6.0,7.0,84,0.00,,,0.00,,2013-04-06 15:53:00,
2013-04-06 16:05:00,37.0,32.0,-100.00,NE,40,5.0,6.0,82,0.00,,,0.00,,2013-04-06 16:05:00,
2013-04-06 16:17:00,37.0,32.0,-100.00,NE,40,6.0,6.0,81,0.00,,,0.00,,2013-04-06 16:17:00,
2013-04-06 16:23:00,37.0,32.0,-100.00,NE,40,5.0,6.0,81,0.00,,,0.00,,2013-04-06 16:23:00,
2013-04-06 16:32:00,38.0,32.0,-100.00,NE,40,5.0,6.0,79,0.00,,,0.00,,2013-04-06 16:32:00,
2013-04-06 16:42:00,37.0,32.0,-100.00,NE,35,5.0,6.0,79,0.00,,,0.00,,2013-04-06 16:42:00,
2013-04-06 16:52:00,38.0,32.0,-100.00,NE,35,4.0,6.0,78,0.00,,,0.00,,2013-04-06 16:52:00,
2013-04-06 17:02:00,39.0,32.0,-100.00,NE,40,4.0,6.0,76,0.00,,,0.00,,2013-04-06 17:02:00,
2013-04-06 17:12:00,39.0,32.0,-100.00,NE,35,4.0,5.0,74,0.00,,,0.00,,2013-04-06 17:12:00,
2013-04-06 17:22:00,39.0,30.0,-100.00,North,5,4.0,6.0,74,0.00,,,0.00,,2013-04-06 17:22:00,
2013-04-06 17:32:00,37.0,32.0,-100.00,NNW,330,4.0,6.0,81,0.00,,,0.00,,2013-04-06 17:32:00,
2013-04-06 17:42:00,37.0,32.0,-100.00,NW,320,5.0,6.0,83,0.00,,,0.00,,2013-04-06 17:42:00,
2013-04-06 17:52:00,36.0,32.0,-100.00,NW,325,7.0,7.0,85,0.00,,,0.00,,2013-04-06 17:52:00,
2013-04-06 18:03:00,36.0,32.0,-100.00,NW,320,7.0,7.0,86,0.00,,,0.00,,2013-04-06 18:03:00,
2013-04-06 18:12:00,36.0,32.0,-100.00,NW,310,7.0,8.0,86,0.00,,,0.00,,2013-04-06 18:12:00,
2013-04-06 18:23:00,36.0,32.0,-100.00,NW,310,7.0,8.0,86,0.00,,,0.00,,2013-04-06 18:23:00,
2013-04-06 18:32:00,36.0,32.0,-100.00,NW,310,7.0,8.0,86,0.00,,,0.00,,2013-04-06 18:32:00,
2013-04-06 18:42:00,36.0,32.0,-100.00,NW,310,7.0,8.0,86,0.00,,,0.00,,2013-04-06 18:42:00,
2013-04-06 19:54:00,35.0,32.0,-100.00,NW,315,14.0,18.0,86,0.00,,,0.00,,2013-04-06 19:54:00,
2013-04-06 20:03:00,35.0,32.0,-100.00,NW,315,14.0,18.0,86,0.00,,,0.00,,2013-04-06 20:03:00,
2013-04-06 20:12:00,35.0,32.0,-100.00,NW,315,14.0,18.0,86,0.00,,,0.00,,2013-04-06 20:12:00,
2013-04-06 20:22:00,35.0,32.0,-100.00,NW,315,14.0,18.0,86,0.00,,,0.00,,2013-04-06 20:22:00,
2013-04-06 20:32:00,35.0,32.0,-100.00,NW,315,14.0,18.0,86,0.00,,,0.00,,2013-04-06 20:32:00,
2013-04-06 20:53:00,35.0,32.0,-100.00,NW,320,17.0,21.0,86,0.00,,,0.00,,2013-04-06 20:53:00,
2013-04-06 21:02:00,35.0,32.0,-100.00,NW,310,17.0,21.0,86,0.00,,,0.00,,2013-04-06 21:02:00,
2013-04-06 21:13:00,35.0,32.0,-100.00,NW,315,15.0,19.0,87,0.00,,,0.00,,2013-04-06 21:13:00,
2013-04-06 21:22:00,35.0,32.0,-100.00,NW,315,15.0,19.0,87,0.00,,,0.00,,2013-04-06 21:22:00,
2013-04-06 21:33:00,35.0,32.0,-100.00,NW,305,16.0,18.0,88,0.00,,,0.00,,2013-04-06 21:33:00,
2013-04-06 21:43:00,34.0,32.0,-100.00,NW,310,14.0,17.0,89,0.00,,,0.00,,2013-04-06 21:43:00,
2013-04-06 21:52:00,34.0,32.0,-100.00,NW,310,15.0,17.0,89,0.00,,,0.00,,2013-04-06 21:52:00,
2013-04-06 22:03:00,34.0,32.0,-100.00,NW,310,15.0,17.0,89,0.00,,,0.00,,2013-04-06 22:03:00,
2013-04-06 22:13:00,34.0,32.0,-100.00,NW,310,15.0,17.0,89,0.00,,,0.00,,2013-04-06 22:13:00,
2013-04-06 22:23:00,34.0,32.0,-100.00,NW,310,15.0,17.0,89,0.00,,,0.00,,2013-04-06 22:23:00,
2013-04-06 22:35:00,34.0,30.0,-100.00,NW,310,17.0,21.0,89,0.00,,,0.00,,2013-04-06 22:35:00,
2013-04-06 22:44:00,34.0,30.0,-100.00,NW,310,17.0,21.0,89,0.00,,,0.00,,2013-04-06 22:44:00,
2013-04-06 22:53:00,34.0,30.0,-100.00,NW,305,18.0,21.0,89,0.00,,,0.00,,2013-04-06 22:53:00,
2013-04-06 23:03:00,34.0,30.0,-100.00,NW,305,18.0,21.0,89,0.00,,,0.00,,2013-04-06 23:03:00,
2013-04-06 23:13:00,34.0,30.0,-100.00,WNW,295,16.0,20.0,90,0.00,,,0.00,,2013-04-06 23:13:00,
2013-04-06 23:23:00,33.0,32.0,-100.00,WNW,300,15.0,20.0,91,0.00,,,0.00,,2013-04-06 23:23:00,
2013-04-06 23:34:00,33.0,32.0,-100.00,WNW,290,17.0,21.0,91,0.00,,,0.00,,2013-04-06 23:34:00,
2013-04-06 23:42:00,33.0,32.0,-100.00,WNW,290,17.0,21.0,91,0.00,,,0.00,,2013-04-06 23:42:00,
2013-04-06 23:52:00,33.0,32.0,-100.00,West,280,17.0,20.0,92,0.00,,,0.00,,2013-04-06 23:52:00,